When you browse on this site, cookies collect data to enhance your experience and personalize the content and advertising you see.
Visit our Privacy Policy to learn more. By continuing to use the site, you agree to this use of cookies and data.
  • In Spain
  • List of Countries
  • For 7 days
  • Water Temperature
  • Weather Map
  • Weather Widgets
  • user-avatar
    Login

    Hourly Weather London

    Today, 13 December, Friday

    Time Temperature Precipitation Wind Pressure Humidity
    00:00 +6°C° 0 mm 5 mps 727 mmHg 93%
    01:00 +5°C° 1.8 mm 6 mps 727 mmHg 90%
    02:00 +5°C° 1.8 mm 7 mps 727 mmHg 87%
    03:00 +5°C° 1.8 mm 8 mps 727 mmHg 84%
    04:00 +5°C° 0.6 mm 8 mps 727 mmHg 83%
    05:00 +5°C° 0.6 mm 9 mps 728 mmHg 82%
    06:00 +3°C° 0.6 mm 9 mps 729 mmHg 82%
    07:00 +3°C° 0.3 mm 9 mps 730 mmHg 81%
    08:00 +3°C° 0.3 mm 9 mps 731 mmHg 80%
    09:00 +4°C° 0.3 mm 8 mps 732 mmHg 79%
    10:00 +5°C° 0 mm 8 mps 733 mmHg 77%
    11:00 +5°C° 0 mm 8 mps 734 mmHg 75%
    12:00 +5°C° 0 mm 8 mps 735 mmHg 72%
    13:00 +5°C° 0 mm 8 mps 736 mmHg 71%
    14:00 +5°C° 0 mm 8 mps 736 mmHg 70%
    15:00 +5°C° 0 mm 8 mps 737 mmHg 69%
    16:00 +4°C° 0 mm 7 mps 737 mmHg 70%
    17:00 +4°C° 0 mm 7 mps 737 mmHg 71%
    18:00 +3°C° 0 mm 6 mps 738 mmHg 73%
    19:00 +3°C° 0 mm 6 mps 737 mmHg 75%
    20:00 +3°C° 0 mm 5 mps 737 mmHg 77%
    21:00 +4°C° 0 mm 4 mps 736 mmHg 79%
    22:00 +4°C° 0.7 mm 4 mps 736 mmHg 84%
    23:00 +4°C° 0.7 mm 3 mps 735 mmHg 89%

    Tomorrow, 14 December, Saturday

    Time Temperature Precipitation Wind Pressure Humidity
    00:00 +5°C° 0.7 mm 2 mps 734 mmHg 94%
    01:00 +5°C° 0.3 mm 4 mps 735 mmHg 90%
    02:00 +5°C° 0.3 mm 5 mps 736 mmHg 87%
    03:00 +4°C° 0.3 mm 7 mps 736 mmHg 83%
    04:00 +4°C° 0 mm 7 mps 737 mmHg 78%
    05:00 +3°C° 0 mm 7 mps 738 mmHg 73%
    06:00 +3°C° 0 mm 7 mps 739 mmHg 67%
    07:00 +3°C° 0 mm 6 mps 740 mmHg 71%
    08:00 +3°C° 0 mm 6 mps 740 mmHg 74%
    09:00 +3°C° 0 mm 6 mps 741 mmHg 77%
    10:00 +3°C° 0.4 mm 6 mps 741 mmHg 77%
    11:00 +3°C° 0.4 mm 7 mps 742 mmHg 78%
    12:00 +3°C° 0.4 mm 7 mps 742 mmHg 78%
    13:00 +3°C° 0 mm 7 mps 743 mmHg 74%
    14:00 +4°C° 0 mm 6 mps 743 mmHg 69%
    15:00 +5°C° 0 mm 5 mps 744 mmHg 65%
    16:00 +3°C° 0 mm 5 mps 743 mmHg 67%
    17:00 +3°C° 0 mm 5 mps 743 mmHg 69%
    18:00 +3°C° 0 mm 5 mps 742 mmHg 71%
    19:00 +4°C° 0.6 mm 6 mps 741 mmHg 76%
    20:00 +5°C° 0.6 mm 7 mps 740 mmHg 81%
    21:00 +6°C° 0.6 mm 8 mps 740 mmHg 86%
    22:00 +5°C° 0.4 mm 8 mps 739 mmHg 82%
    23:00 +5°C° 0.4 mm 8 mps 739 mmHg 79%

    Day after tomorrow, 15 December, Sunday

    Time Temperature Precipitation Wind Pressure Humidity
    00:00 +4°C° 0.4 mm 7 mps 739 mmHg 76%
    01:00 +4°C° 0 mm 8 mps 740 mmHg 71%
    02:00 +2°C° 0 mm 9 mps 741 mmHg 67%
    03:00 +2°C° 0 mm 9 mps 741 mmHg 63%
    04:00 +2°C° 0 mm 8 mps 743 mmHg 65%
    05:00 +2°C° 0 mm 7 mps 744 mmHg 67%
    06:00 +2°C° 0 mm 6 mps 745 mmHg 69%
    07:00 +2°C° 0 mm 5 mps 745 mmHg 71%
    08:00 +2°C° 0 mm 5 mps 746 mmHg 72%
    09:00 +3°C° 0 mm 5 mps 747 mmHg 74%
    10:00 +4°C° 0.1 mm 6 mps 747 mmHg 71%
    11:00 +5°C° 0.1 mm 6 mps 747 mmHg 69%
    12:00 +6°C° 0.1 mm 7 mps 747 mmHg 66%
    13:00 +5°C° 0.1 mm 6 mps 747 mmHg 68%
    14:00 +5°C° 0.1 mm 6 mps 747 mmHg 69%
    15:00 +6°C° 0.1 mm 5 mps 747 mmHg 71%
    16:00 +6°C° 0.1 mm 5 mps 747 mmHg 74%
    17:00 +6°C° 0.1 mm 5 mps 747 mmHg 76%
    18:00 +5°C° 0.1 mm 5 mps 747 mmHg 79%
    19:00 +5°C° 0.7 mm 5 mps 747 mmHg 81%
    20:00 +5°C° 0.7 mm 4 mps 747 mmHg 83%
    21:00 +5°C° 0.7 mm 4 mps 747 mmHg 86%
    22:00 +5°C° 0.5 mm 4 mps 747 mmHg 84%
    23:00 +5°C° 0.5 mm 4 mps 747 mmHg 83%

    16 December, Monday

    Time Temperature Precipitation Wind Pressure Humidity
    00:00 +5°C° 0.5 mm 4 mps 747 mmHg 82%
    01:00 +5°C° 0 mm 4 mps 747 mmHg 81%
    02:00 +5°C° 0 mm 4 mps 747 mmHg 80%
    03:00 +5°C° 0 mm 4 mps 747 mmHg 79%
    04:00 +5°C° 0 mm 4 mps 747 mmHg 79%
    05:00 +5°C° 0 mm 5 mps 747 mmHg 79%
    06:00 +5°C° 0 mm 5 mps 747 mmHg 79%
    07:00 +5°C° 0 mm 5 mps 748 mmHg 79%
    08:00 +6°C° 0 mm 5 mps 748 mmHg 79%
    09:00 +6°C° 0 mm 5 mps 749 mmHg 79%
    10:00 +6°C° 0 mm 5 mps 749 mmHg 77%
    11:00 +7°C° 0 mm 5 mps 749 mmHg 74%
    12:00 +8°C° 0 mm 5 mps 749 mmHg 72%
    13:00 +7°C° 0 mm 4 mps 749 mmHg 73%
    14:00 +7°C° 0 mm 4 mps 749 mmHg 74%
    15:00 +8°C° 0 mm 3 mps 749 mmHg 76%
    16:00 +7°C° 0 mm 2 mps 749 mmHg 77%
    17:00 +6°C° 0 mm 2 mps 750 mmHg 79%
    18:00 +7°C° 0 mm 1 mps 750 mmHg 81%
    19:00 +7°C° 0 mm 1 mps 750 mmHg 80%
    20:00 +6°C° 0 mm 1 mps 751 mmHg 80%
    21:00 +6°C° 0 mm 1 mps 751 mmHg 80%
    22:00 +6°C° 0 mm 1 mps 751 mmHg 80%
    23:00 +6°C° 0 mm 1 mps 751 mmHg 81%

    17 December, Tuesday

    Time Temperature Precipitation Wind Pressure Humidity
    00:00 +6°C° 0 mm 1 mps 751 mmHg 81%
    01:00 +6°C° 0 mm 1 mps 751 mmHg 82%
    02:00 +6°C° 0 mm 1 mps 751 mmHg 82%
    03:00 +6°C° 0 mm 1 mps 751 mmHg 83%
    04:00 +5°C° 0 mm 1 mps 751 mmHg 83%
    05:00 +4°C° 0 mm 2 mps 751 mmHg 82%
    06:00 +4°C° 0 mm 2 mps 751 mmHg 82%
    07:00 +4°C° 0 mm 2 mps 752 mmHg 81%
    08:00 +4°C° 0 mm 2 mps 752 mmHg 80%
    09:00 +4°C° 0 mm 2 mps 752 mmHg 79%
    10:00 +4°C° 0 mm 2 mps 752 mmHg 77%
    11:00 +5°C° 0 mm 2 mps 752 mmHg 75%
    12:00 +6°C° 0 mm 1 mps 752 mmHg 73%
    13:00 +5°C° 0 mm 2 mps 752 mmHg 74%
    14:00 +5°C° 0 mm 2 mps 752 mmHg 75%
    15:00 +5°C° 0 mm 2 mps 752 mmHg 75%
    16:00 +5°C° 0 mm 2 mps 753 mmHg 77%
    17:00 +4°C° 0 mm 2 mps 753 mmHg 78%
    18:00 +5°C° 0 mm 1 mps 753 mmHg 79%
    19:00 +3°C° 0 mm 2 mps 754 mmHg 79%
    20:00 +3°C° 0 mm 2 mps 754 mmHg 79%
    21:00 +3°C° 0 mm 2 mps 754 mmHg 79%
    22:00 +3°C° 0 mm 2 mps 755 mmHg 80%
    23:00 +3°C° 0 mm 1 mps 755 mmHg 81%

    18 December, Wednesday

    Time Temperature Precipitation Wind Pressure Humidity
    00:00 +3°C° 0 mm 1 mps 755 mmHg 81%
    01:00 +3°C° 0 mm 1 mps 756 mmHg 81%
    02:00 +3°C° 0 mm 1 mps 756 mmHg 82%
    03:00 +2°C° 0 mm 1 mps 756 mmHg 82%
    04:00 +2°C° 0 mm 1 mps 756 mmHg 82%
    05:00 +2°C° 0 mm 1 mps 757 mmHg 82%
    06:00 +2°C° 0 mm 1 mps 757 mmHg 82%
    07:00 +3°C° 0 mm 1 mps 758 mmHg 81%
    08:00 +3°C° 0 mm 1 mps 758 mmHg 80%
    09:00 +3°C° 0 mm 1 mps 759 mmHg 79%
    10:00 +4°C° 0 mm 1 mps 759 mmHg 75%
    11:00 +5°C° 0 mm 1 mps 759 mmHg 71%
    12:00 +5°C° 0 mm 1 mps 759 mmHg 67%
    13:00 +5°C° 0 mm 1 mps 759 mmHg 69%
    14:00 +5°C° 0 mm 1 mps 758 mmHg 70%
    15:00 +5°C° 0 mm 1 mps 758 mmHg 71%
    16:00 +3°C° 0 mm 2 mps 758 mmHg 73%
    17:00 +2°C° 0 mm 2 mps 758 mmHg 75%
    18:00 +2°C° 0 mm 2 mps 758 mmHg 77%
    19:00 +2°C° 0 mm 2 mps 758 mmHg 79%
    20:00 +2°C° 0 mm 2 mps 758 mmHg 81%
    21:00 +1°C° 0 mm 3 mps 757 mmHg 83%
    22:00 +1°C° 0 mm 3 mps 757 mmHg 84%
    23:00 +1°C° 0 mm 3 mps 756 mmHg 86%
    Show more